| time (UTC) | temp F | wind direction | speed knots | gust knots | rain 1hr in | rain 24hr in | rain mn in | humidity % | barometer mb |
| 20260508115306 | 39 | 0 | 0.9 | 3.5 | 0.00 | 0.01 | 0.00 | 67 | 1013.5 |
| 20260508114132 | 37 | 0 | 0.0 | 0.0 | 0.00 | 0.01 | 0.00 | 72 | 1013.6 |
| 20260508113637 | 37 | 0 | 0.0 | 0.0 | 0.00 | 0.01 | 0.00 | 73 | 1013.6 |
| 20260508113131 | 36 | 0 | 0.0 | 0.0 | 0.00 | 0.01 | 0.00 | 75 | 1013.6 |
| 20260508112624 | 36 | 0 | 0.0 | 0.0 | 0.00 | 0.01 | 0.00 | 76 | 1013.6 |
| 20260508112108 | 36 | 0 | 0.0 | 0.0 | 0.00 | 0.01 | 0.00 | 77 | 1013.6 |
| 20260508111603 | 36 | 0 | 0.0 | 1.7 | 0.00 | 0.01 | 0.00 | 77 | 1013.5 |
| 20260508111106 | 36 | 0 | 0.0 | 0.0 | 0.00 | 0.01 | 0.00 | 79 | 1013.6 |
| 20260508105941 | 34 | 0 | 0.0 | 0.0 | 0.00 | 0.01 | 0.00 | 83 | 1013.7 |
| 20260508104808 | 34 | 0 | 0.9 | 0.0 | 0.00 | 0.01 | 0.00 | 84 | 1013.8 |
| 20260508104306 | 34 | 0 | 0.0 | 4.3 | 0.00 | 0.01 | 0.00 | 85 | 1013.7 |
| 20260508103123 | 33 | 0 | 0.0 | 0.9 | 0.00 | 0.01 | 0.00 | 84 | 1013.8 |
| 20260508102620 | 33 | 0 | 0.0 | 0.9 | 0.00 | 0.01 | 0.00 | 83 | 1013.7 |
| 20260508101501 | 34 | 0 | 0.0 | 1.7 | 0.00 | 0.01 | 0.00 | 83 | 1013.6 |
| 20260508100346 | 34 | 0 | 0.0 | 0.9 | 0.00 | 0.01 | 0.00 | 82 | 1013.8 |
| 20260508095852 | 35 | 0 | 0.0 | 0.0 | 0.00 | 0.01 | 0.00 | 81 | 1013.7 |
| 20260508095333 | 35 | 0 | 0.0 | 0.0 | 0.00 | 0.01 | 0.00 | 80 | 1013.7 |
| 20260508094144 | 36 | 0 | 0.0 | 0.0 | 0.00 | 0.01 | 0.00 | 79 | 1013.8 |
| 20260508093636 | 36 | 0 | 0.0 | 0.0 | 0.00 | 0.01 | 0.00 | 79 | 1013.7 |
| 20260508093129 | 36 | 0 | 0.0 | 0.0 | 0.00 | 0.01 | 0.00 | 80 | 1013.7 |
| 20260508090736 | 36 | 0 | 0.0 | 0.9 | 0.00 | 0.01 | 0.00 | 80 | 1013.7 |
| 20260508090219 | 36 | 0 | 0.0 | 1.7 | 0.00 | 0.01 | 0.00 | 80 | 1013.9 |
| 20260508085700 | 36 | 0 | 0.0 | 1.7 | 0.00 | 0.01 | 0.00 | 81 | 1014.0 |
| 20260508085142 | 36 | 0 | 0.0 | 0.0 | 0.00 | 0.01 | 0.00 | 82 | 1014.1 |
| 20260508084627 | 36 | 0 | 0.0 | 0.0 | 0.00 | 0.01 | 0.00 | 84 | 1014.2 |
| 20260508084116 | 35 | 0 | 0.0 | 0.0 | 0.00 | 0.01 | 0.00 | 84 | 1014.3 |
| 20260508083618 | 35 | 0 | 0.0 | 0.0 | 0.00 | 0.01 | 0.00 | 83 | 1014.3 |
| 20260508081829 | 35 | 0 | 0.0 | 0.0 | 0.00 | 0.01 | 0.00 | 82 | 1014.8 |
| 20260508081339 | 35 | 0 | 0.0 | 0.0 | 0.00 | 0.01 | 0.00 | 81 | 1014.8 |
| 20260508080819 | 36 | 0 | 0.0 | 0.0 | 0.00 | 0.01 | 0.00 | 81 | 1014.9 |
| 20260508080304 | 36 | 0 | 0.0 | 0.0 | 0.00 | 0.01 | 0.00 | 81 | 1015.2 |
| 20260508075812 | 36 | 0 | 0.0 | 0.0 | 0.00 | 0.01 | 0.00 | 81 | 1015.2 |
| 20260508075257 | 36 | 0 | 0.0 | 0.0 | 0.00 | 0.01 | 0.00 | 80 | 1015.4 |
| 20260508074743 | 37 | 0 | 0.0 | 0.0 | 0.00 | 0.01 | 0.00 | 79 | 1015.3 |
| 20260508074225 | 37 | 0 | 0.0 | 0.0 | 0.00 | 0.01 | 0.00 | 78 | 1015.4 |
| 20260508073730 | 38 | 0 | 0.0 | 0.0 | 0.00 | 0.01 | 0.00 | 78 | 1015.6 |
| 20260508073212 | 38 | 0 | 0.0 | 0.0 | 0.00 | 0.01 | 0.00 | 77 | 1015.7 |
| 20260508072705 | 39 | 0 | 0.0 | 0.0 | 0.00 | 0.01 | 0.00 | 76 | 1015.9 |
| 20260508071528 | 39 | 0 | 0.0 | 0.0 | 0.00 | 0.01 | 0.00 | 75 | 1016.0 |
| 20260508071030 | 39 | 0 | 0.0 | 0.0 | 0.00 | 0.01 | 0.00 | 74 | 1016.1 |
| 20260508070529 | 39 | 0 | 0.0 | 0.9 | 0.00 | 0.01 | 0.00 | 73 | 1016.4 |
| 20260508064800 | 39 | 0 | 0.0 | 1.7 | 0.00 | 0.01 | 0.00 | 71 | 1016.1 |
| 20260508063608 | 40 | 0 | 0.9 | 2.6 | 0.00 | 0.01 | 0.00 | 69 | 1016.2 |
| 20260508063105 | 40 | 0 | 0.9 | 2.6 | 0.00 | 0.01 | 0.00 | 68 | 1015.9 |
| 20260508062546 | 41 | 0 | 0.0 | 1.7 | 0.00 | 0.01 | 0.00 | 67 | 1016.0 |
| 20260508062035 | 41 | 0 | 0.9 | 1.7 | 0.00 | 0.01 | 0.00 | 65 | 1016.1 |
| 20260508061525 | 41 | 0 | 0.0 | 2.6 | 0.00 | 0.01 | 0.00 | 64 | 1016.2 |
| 20260508061027 | 41 | 0 | 0.0 | 2.6 | 0.00 | 0.01 | 0.00 | 63 | 1016.3 |
| 20260508060533 | 41 | 0 | 0.0 | 0.0 | 0.00 | 0.01 | 0.00 | 64 | 1016.0 |
| 20260508060041 | 40 | 0 | 0.0 | 0.0 | 0.00 | 0.01 | 0.00 | 64 | 1016.2 |
| 20260508054904 | 41 | 0 | 0.0 | 0.0 | 0.00 | 0.01 | 0.01 | 64 | 1016.4 |
| 20260508054402 | 42 | 0 | 0.0 | 0.0 | 0.00 | 0.01 | 0.01 | 62 | 1016.4 |
| 20260508053859 | 43 | 0 | 0.0 | 4.3 | 0.00 | 0.01 | 0.01 | 60 | 1016.5 |
| 20260508053341 | 43 | 0 | 0.0 | 4.3 | 0.00 | 0.01 | 0.01 | 60 | 1016.6 |
| 20260508052202 | 43 | 0 | 0.9 | 4.3 | 0.00 | 0.01 | 0.01 | 59 | 1016.5 |
| 20260508051656 | 43 | 0 | 0.9 | 4.3 | 0.00 | 0.01 | 0.01 | 58 | 1016.6 |
| 20260508051144 | 44 | 0 | 0.9 | 4.3 | 0.00 | 0.01 | 0.01 | 58 | 1016.5 |
| 20260508050650 | 43 | 0 | 1.7 | 3.5 | 0.00 | 0.01 | 0.01 | 58 | 1016.5 |
| 20260508050147 | 43 | 0 | 0.9 | 3.5 | 0.00 | 0.01 | 0.01 | 60 | 1016.6 |
| 20260508045007 | 42 | 0 | 0.0 | 1.7 | 0.00 | 0.01 | 0.01 | 61 | 1016.8 |
| 20260508044455 | 42 | 0 | 0.0 | 0.9 | 0.00 | 0.01 | 0.01 | 61 | 1016.8 |
| 20260508043957 | 42 | 0 | 0.0 | 1.7 | 0.00 | 0.01 | 0.01 | 63 | 1016.7 |
| 20260508043455 | 42 | 0 | 0.0 | 0.0 | 0.00 | 0.01 | 0.01 | 64 | 1016.8 |
| 20260508042937 | 42 | 0 | 0.0 | 0.0 | 0.00 | 0.01 | 0.01 | 65 | 1016.7 |
| 20260508042439 | 42 | 0 | 0.0 | 0.0 | 0.00 | 0.01 | 0.01 | 64 | 1016.8 |
| 20260508041921 | 42 | 0 | 0.0 | 0.0 | 0.00 | 0.01 | 0.01 | 64 | 1016.7 |
| 20260508041422 | 42 | 0 | 0.0 | 0.0 | 0.00 | 0.01 | 0.01 | 64 | 1016.8 |
| 20260508035637 | 43 | 0 | 0.0 | 0.9 | 0.00 | 0.01 | 0.01 | 61 | 1017.0 |
| 20260508034513 | 44 | 0 | 0.0 | 0.9 | 0.00 | 0.01 | 0.01 | 58 | 1017.2 |
| 20260508034012 | 44 | 0 | 0.0 | 0.0 | 0.00 | 0.01 | 0.01 | 57 | 1017.1 |
| 20260508033501 | 44 | 0 | 0.0 | 0.9 | 0.00 | 0.01 | 0.01 | 58 | 1017.1 |
| 20260508033001 | 44 | 0 | 0.0 | 0.9 | 0.00 | 0.01 | 0.01 | 57 | 1017.1 |
| 20260508032507 | 44 | 0 | 0.0 | 1.7 | 0.00 | 0.01 | 0.01 | 59 | 1017.1 |
| 20260508031401 | 45 | 0 | 0.0 | 1.7 | 0.00 | 0.01 | 0.01 | 58 | 1017.3 |
| 20260508030858 | 45 | 0 | 0.0 | 1.7 | 0.00 | 0.01 | 0.01 | 58 | 1017.2 |
| 20260508030402 | 45 | 0 | 0.0 | 0.9 | 0.00 | 0.01 | 0.01 | 58 | 1017.3 |
| 20260508025856 | 45 | 0 | 0.0 | 0.0 | 0.00 | 0.01 | 0.01 | 58 | 1017.3 |
| 20260508025336 | 45 | 0 | 0.0 | 0.0 | 0.00 | 0.01 | 0.01 | 58 | 1017.3 |
| 20260508024821 | 45 | 0 | 0.0 | 0.0 | 0.00 | 0.01 | 0.01 | 58 | 1017.3 |
| 20260508024308 | 45 | 0 | 0.0 | 3.5 | 0.00 | 0.01 | 0.01 | 59 | 1017.4 |
| 20260508023818 | 45 | 0 | 0.0 | 3.5 | 0.00 | 0.01 | 0.01 | 59 | 1017.5 |
| 20260508022651 | 45 | 0 | 0.0 | 0.0 | 0.00 | 0.01 | 0.01 | 59 | 1017.3 |
| 20260508022134 | 45 | 0 | 0.0 | 0.0 | 0.00 | 0.01 | 0.01 | 58 | 1017.3 |
| 20260508021621 | 46 | 0 | 0.0 | 0.0 | 0.00 | 0.01 | 0.01 | 57 | 1017.1 |
| 20260508021130 | 46 | 0 | 0.0 | 0.0 | 0.00 | 0.01 | 0.01 | 56 | 1017.1 |
| 20260508020619 | 47 | 0 | 0.0 | 0.0 | 0.00 | 0.01 | 0.01 | 55 | 1017.2 |
| 20260508020103 | 48 | 0 | 0.0 | 0.0 | 0.00 | 0.01 | 0.01 | 52 | 1017.0 |
| 20260508015552 | 48 | 0 | 0.0 | 0.0 | 0.00 | 0.01 | 0.01 | 51 | 1017.0 |
| 20260508015056 | 48 | 0 | 0.0 | 0.0 | 0.00 | 0.01 | 0.01 | 50 | 1017.0 |
| 20260508014604 | 49 | 0 | 0.0 | 0.0 | 0.00 | 0.01 | 0.01 | 50 | 1017.0 |
| 20260508014055 | 49 | 0 | 0.0 | 0.0 | 0.00 | 0.01 | 0.01 | 51 | 1016.9 |
| 20260508013604 | 49 | 0 | 0.0 | 0.0 | 0.00 | 0.01 | 0.01 | 48 | 1016.9 |
| 20260508013047 | 49 | 0 | 0.0 | 0.0 | 0.00 | 0.01 | 0.01 | 50 | 1016.9 |
| 20260508012537 | 50 | 0 | 0.0 | 3.5 | 0.00 | 0.01 | 0.01 | 48 | 1016.8 |
| 20260508011415 | 50 | 0 | 0.9 | 4.3 | 0.00 | 0.01 | 0.01 | 47 | 1016.8 |
| 20260508010913 | 50 | 0 | 0.9 | 8.7 | 0.00 | 0.01 | 0.01 | 46 | 1016.8 |
| 20260508010419 | 51 | 0 | 1.7 | 8.7 | 0.00 | 0.01 | 0.01 | 44 | 1016.9 |
| 20260508005902 | 51 | 0 | 1.7 | 8.7 | 0.00 | 0.01 | 0.01 | 45 | 1016.8 |
| 20260508005356 | 51 | 0 | 1.7 | 8.7 | 0.00 | 0.01 | 0.01 | 43 | 1016.8 |
| 20260508004841 | 51 | 0 | 0.9 | 6.1 | 0.00 | 0.01 | 0.01 | 43 | 1016.9 |
| 20260508003650 | 53 | 0 | 1.7 | 4.3 | 0.00 | 0.01 | 0.01 | 42 | 1016.9 |
| 20260508003143 | 54 | 0 | 1.7 | 7.8 | 0.00 | 0.01 | 0.01 | 41 | 1016.7 |
| 20260508002037 | 54 | 0 | 1.7 | 7.8 | 0.00 | 0.01 | 0.01 | 42 | 1016.9 |
| 20260508001520 | 53 | 0 | 1.7 | 7.8 | 0.00 | 0.01 | 0.01 | 42 | 1017.1 |
| 20260508001015 | 53 | 0 | 2.6 | 7.8 | 0.00 | 0.01 | 0.01 | 42 | 1017.3 |
| 20260508000512 | 53 | 0 | 2.6 | 7.8 | 0.00 | 0.01 | 0.01 | 42 | 1017.3 |
| 20260508000011 | 52 | 0 | 1.7 | 7.8 | 0.00 | 0.01 | 0.01 | 42 | 1017.5 |
| 20260507235457 | 52 | 0 | 1.7 | 7.8 | 0.00 | 0.01 | 0.01 | 45 | 1017.3 |
| 20260507234939 | 52 | 0 | 1.7 | 7.8 | 0.00 | 0.01 | 0.01 | 41 | 1017.4 |
| 20260507234438 | 53 | 0 | 1.7 | 7.8 | 0.00 | 0.01 | 0.01 | 40 | 1017.4 |
| 20260507233922 | 54 | 0 | 0.9 | 7.8 | 0.00 | 0.01 | 0.01 | 39 | 1017.4 |
| 20260507233424 | 54 | 0 | 1.7 | 10.4 | 0.00 | 0.01 | 0.01 | 36 | 1017.4 |
| 20260507232909 | 55 | 0 | 2.6 | 10.4 | 0.00 | 0.01 | 0.01 | 37 | 1017.5 |
| 20260507232405 | 55 | 0 | 2.6 | 10.4 | 0.00 | 0.01 | 0.01 | 39 | 1017.5 |
| 20260507231902 | 55 | 0 | 1.7 | 10.4 | 0.00 | 0.01 | 0.01 | 35 | 1017.5 |
| 20260507231405 | 55 | 0 | 0.9 | 4.3 | 0.00 | 0.01 | 0.01 | 34 | 1017.5 |
| 20260507230904 | 55 | 0 | 0.9 | 4.3 | 0.00 | 0.01 | 0.01 | 38 | 1017.7 |
| 20260507230351 | 54 | 0 | 0.9 | 4.3 | 0.00 | 0.01 | 0.01 | 41 | 1017.6 |
| 20260507225901 | 54 | 0 | 0.0 | 4.3 | 0.00 | 0.01 | 0.01 | 40 | 1017.6 |
| 20260507224732 | 53 | 0 | 0.0 | 2.6 | 0.00 | 0.01 | 0.01 | 39 | 1017.9 |
| 20260507224214 | 52 | 0 | 0.9 | 2.6 | 0.00 | 0.01 | 0.01 | 41 | 1017.9 |
| 20260507223714 | 51 | 0 | 0.0 | 2.6 | 0.00 | 0.01 | 0.01 | 40 | 1018.0 |
| 20260507223216 | 51 | 0 | 0.0 | 0.0 | 0.00 | 0.01 | 0.01 | 41 | 1018.1 |
| 20260507222656 | 51 | 0 | 0.9 | 0.0 | 0.00 | 0.01 | 0.01 | 42 | 1018.2 |
| 20260507222148 | 51 | 0 | 0.9 | 6.1 | 0.00 | 0.01 | 0.01 | 41 | 1018.2 |
| 20260507221631 | 51 | 0 | 0.9 | 6.1 | 0.00 | 0.01 | 0.01 | 41 | 1018.2 |
| 20260507221116 | 51 | 0 | 0.9 | 6.1 | 0.00 | 0.01 | 0.01 | 43 | 1018.4 |
| 20260507220623 | 51 | 0 | 0.9 | 6.1 | 0.00 | 0.01 | 0.01 | 41 | 1018.5 |
| 20260507220125 | 51 | 0 | 0.9 | 4.3 | 0.00 | 0.01 | 0.01 | 40 | 1018.6 |
| 20260507215613 | 52 | 0 | 0.9 | 4.3 | 0.00 | 0.01 | 0.01 | 41 | 1018.7 |
| 20260507215059 | 52 | 0 | 0.9 | 2.6 | 0.00 | 0.01 | 0.01 | 45 | 1018.8 |
| 20260507214608 | 51 | 0 | 0.0 | 4.3 | 0.00 | 0.01 | 0.01 | 44 | 1018.9 |
| 20260507213432 | 51 | 0 | 0.9 | 7.0 | 0.00 | 0.01 | 0.01 | 44 | 1019.0 |
| 20260507212917 | 51 | 0 | 1.7 | 7.0 | 0.00 | 0.01 | 0.01 | 46 | 1019.0 |
| 20260507211746 | 50 | 0 | 0.9 | 6.1 | 0.00 | 0.01 | 0.01 | 48 | 1019.3 |
| 20260507211253 | 50 | 0 | 0.9 | 6.1 | 0.00 | 0.01 | 0.01 | 46 | 1019.3 |
| 20260507210759 | 50 | 0 | 0.9 | 6.1 | 0.00 | 0.01 | 0.01 | 47 | 1019.5 |
| 20260507210253 | 50 | 0 | 1.7 | 6.1 | 0.00 | 0.01 | 0.01 | 46 | 1019.4 |
| 20260507205743 | 51 | 0 | 0.0 | 3.5 | 0.00 | 0.01 | 0.01 | 46 | 1019.6 |
| 20260507205250 | 51 | 0 | 0.0 | 3.5 | 0.00 | 0.01 | 0.01 | 46 | 1019.7 |
| 20260507204745 | 50 | 0 | 0.9 | 0.0 | 0.00 | 0.01 | 0.01 | 48 | 1019.8 |
| 20260507204228 | 50 | 0 | 1.7 | 7.0 | 0.00 | 0.01 | 0.01 | 47 | 1020.0 |
| 20260507203724 | 51 | 0 | 1.7 | 7.0 | 0.00 | 0.01 | 0.01 | 47 | 1020.1 |
| 20260507202614 | 51 | 0 | 2.6 | 7.8 | 0.00 | 0.01 | 0.01 | 45 | 1020.2 |
| 20260507202103 | 51 | 0 | 2.6 | 13.0 | 0.00 | 0.01 | 0.01 | 46 | 1020.2 |
| 20260507201559 | 51 | 0 | 3.5 | 13.0 | 0.00 | 0.01 | 0.01 | 48 | 1020.3 |
| 20260507201054 | 51 | 0 | 4.3 | 13.0 | 0.00 | 0.01 | 0.01 | 48 | 1020.4 |
| 20260507200538 | 51 | 0 | 3.5 | 13.0 | 0.00 | 0.01 | 0.01 | 47 | 1020.6 |
| 20260507200030 | 51 | 0 | 2.6 | 9.6 | 0.00 | 0.01 | 0.01 | 47 | 1020.6 |
| 20260507195520 | 51 | 0 | 1.7 | 9.6 | 0.00 | 0.01 | 0.01 | 48 | 1020.8 |
| 20260507195004 | 51 | 0 | 3.5 | 9.6 | 0.00 | 0.01 | 0.01 | 49 | 1020.8 |
| 20260507194500 | 51 | 0 | 2.6 | 9.6 | 0.00 | 0.01 | 0.01 | 47 | 1020.6 |
| 20260507194007 | 51 | 0 | 2.6 | 7.0 | 0.00 | 0.01 | 0.01 | 50 | 1020.7 |
| 20260507192836 | 50 | 0 | 2.6 | 7.8 | 0.00 | 0.01 | 0.01 | 52 | 1020.8 |
| 20260507192318 | 50 | 0 | 3.5 | 7.8 | 0.00 | 0.01 | 0.01 | 51 | 1021.0 |
| 20260507191826 | 49 | 0 | 2.6 | 7.8 | 0.00 | 0.01 | 0.01 | 57 | 1021.2 |
| 20260507191314 | 48 | 0 | 1.7 | 6.1 | 0.00 | 0.01 | 0.01 | 64 | 1021.2 |
| 20260507190804 | 47 | 0 | 1.7 | 4.3 | 0.00 | 0.01 | 0.01 | 63 | 1021.4 |
| 20260507190309 | 47 | 0 | 0.9 | 4.3 | 0.00 | 0.01 | 0.01 | 64 | 1021.6 |
| 20260507185753 | 48 | 0 | 0.9 | 4.3 | 0.00 | 0.01 | 0.01 | 63 | 1021.8 |
| 20260507185242 | 48 | 0 | 1.7 | 4.3 | 0.00 | 0.01 | 0.01 | 60 | 1021.9 |
| 20260507184748 | 48 | 0 | 0.9 | 3.5 | 0.00 | 0.01 | 0.01 | 63 | 1021.8 |
| 20260507184230 | 48 | 0 | 0.9 | 3.5 | 0.00 | 0.01 | 0.01 | 65 | 1021.8 |
| 20260507183736 | 46 | 0 | 0.9 | 3.5 | 0.00 | 0.01 | 0.01 | 65 | 1021.9 |
| 20260507183221 | 45 | 0 | 0.0 | 2.6 | 0.00 | 0.01 | 0.01 | 67 | 1022.0 |
| 20260507182718 | 43 | 0 | 0.9 | 2.6 | 0.00 | 0.01 | 0.01 | 73 | 1022.1 |
| 20260507182205 | 42 | 0 | 0.9 | 2.6 | 0.00 | 0.01 | 0.01 | 78 | 1022.2 |
| 20260507181647 | 41 | 0 | 0.9 | 2.6 | 0.00 | 0.01 | 0.01 | 77 | 1022.2 |
| 20260507181145 | 41 | 0 | 0.0 | 2.6 | 0.00 | 0.01 | 0.01 | 78 | 1022.3 |
| 20260507180628 | 41 | 0 | 0.0 | 1.7 | 0.00 | 0.01 | 0.01 | 79 | 1022.3 |
| 20260507180113 | 40 | 0 | 0.9 | 2.6 | 0.00 | 0.01 | 0.01 | 78 | 1022.3 |
| 20260507175554 | 40 | 0 | 0.9 | 2.6 | 0.00 | 0.01 | 0.01 | 78 | 1022.5 |
| 20260507175053 | 40 | 0 | 0.9 | 3.5 | 0.00 | 0.01 | 0.01 | 78 | 1022.6 |
| 20260507174546 | 40 | 0 | 0.9 | 3.5 | 0.00 | 0.01 | 0.01 | 78 | 1022.9 |
| 20260507174049 | 39 | 0 | 1.7 | 3.5 | 0.00 | 0.01 | 0.01 | 78 | 1022.9 |
| 20260507173540 | 39 | 0 | 1.7 | 3.5 | 0.00 | 0.02 | 0.01 | 78 | 1023.0 |
| 20260507173025 | 39 | 0 | 1.7 | 3.5 | 0.00 | 0.02 | 0.01 | 78 | 1023.0 |
| 20260507172510 | 39 | 0 | 1.7 | 3.5 | 0.00 | 0.02 | 0.01 | 79 | 1023.0 |
| 20260507171954 | 39 | 0 | 0.9 | 3.5 | 0.00 | 0.02 | 0.01 | 79 | 1023.1 |
| 20260507171447 | 39 | 0 | 1.7 | 3.5 | 0.00 | 0.02 | 0.01 | 79 | 1023.2 |
| 20260507170941 | 39 | 0 | 0.9 | 8.7 | 0.00 | 0.02 | 0.01 | 79 | 1023.2 |
| 20260507165819 | 38 | 0 | 1.7 | 8.7 | 0.00 | 0.02 | 0.01 | 79 | 1023.4 |
| 20260507165316 | 38 | 0 | 0.9 | 8.7 | 0.00 | 0.02 | 0.01 | 81 | 1023.4 |
| 20260507164800 | 38 | 0 | 0.9 | 3.5 | 0.00 | 0.02 | 0.01 | 81 | 1023.4 |
| 20260507163641 | 38 | 0 | 0.0 | 1.7 | 0.00 | 0.02 | 0.01 | 81 | 1023.6 |
| 20260507163135 | 38 | 0 | 0.0 | 0.0 | 0.00 | 0.02 | 0.01 | 80 | 1023.5 |
| 20260507162623 | 38 | 0 | 0.0 | 6.1 | 0.00 | 0.02 | 0.01 | 79 | 1023.8 |
| 20260507162125 | 38 | 0 | 0.9 | 6.1 | 0.00 | 0.02 | 0.01 | 79 | 1023.8 |
| 20260507161633 | 38 | 0 | 0.9 | 6.1 | 0.00 | 0.02 | 0.01 | 79 | 1023.7 |
| 20260507161130 | 39 | 0 | 0.0 | 2.6 | 0.00 | 0.02 | 0.01 | 79 | 1023.9 |
| 20260507160620 | 39 | 0 | 0.0 | 2.6 | 0.00 | 0.02 | 0.01 | 79 | 1024.0 |
| 20260507160122 | 38 | 0 | 0.0 | 1.7 | 0.00 | 0.02 | 0.01 | 79 | 1024.0 |
| 20260507155016 | 40 | 0 | 0.0 | 0.0 | 0.00 | 0.02 | 0.01 | 80 | 1024.3 |
| 20260507154503 | 40 | 0 | 0.0 | 0.0 | 0.00 | 0.04 | 0.01 | 78 | 1024.5 |
| 20260507153943 | 41 | 0 | 0.0 | 0.0 | 0.00 | 0.04 | 0.01 | 77 | 1024.6 |
| 20260507153427 | 41 | 0 | 0.0 | 0.0 | 0.00 | 0.04 | 0.01 | 76 | 1024.4 |
| 20260507152918 | 42 | 0 | 0.0 | 0.0 | 0.00 | 0.04 | 0.01 | 73 | 1024.5 |
| 20260507152424 | 42 | 0 | 0.0 | 0.0 | 0.00 | 0.04 | 0.01 | 70 | 1024.5 |
| 20260507151240 | 43 | 0 | 0.0 | 0.0 | 0.00 | 0.04 | 0.01 | 67 | 1024.8 |
| 20260507150133 | 42 | 0 | 0.0 | 0.0 | 0.00 | 0.05 | 0.01 | 67 | 1025.0 |
| 20260507145622 | 41 | 0 | 0.0 | 0.0 | 0.00 | 0.05 | 0.01 | 68 | 1024.9 |
| 20260507145109 | 41 | 0 | 0.0 | 0.0 | 0.00 | 0.05 | 0.01 | 70 | 1024.9 |
| 20260507144602 | 40 | 0 | 0.0 | 0.0 | 0.00 | 0.05 | 0.01 | 69 | 1025.0 |
| 20260507144052 | 40 | 0 | 0.0 | 0.0 | 0.00 | 0.05 | 0.01 | 72 | 1025.1 |
| 20260507143546 | 39 | 0 | 0.0 | 0.0 | 0.00 | 0.05 | 0.01 | 72 | 1025.2 |
| 20260507143044 | 38 | 0 | 0.0 | 0.0 | 0.00 | 0.05 | 0.01 | 78 | 1025.1 |
| 20260507142526 | 36 | 0 | 0.0 | 0.0 | 0.00 | 0.05 | 0.01 | 81 | 1025.1 |
| 20260507142036 | 35 | 0 | 0.0 | 0.0 | 0.00 | 0.05 | 0.01 | 81 | 1025.2 |
| 20260507141536 | 34 | 0 | 0.0 | 0.0 | 0.00 | 0.07 | 0.01 | 82 | 1025.2 |
| 20260507141027 | 33 | 0 | 0.9 | 2.6 | 0.00 | 0.07 | 0.01 | 82 | 1025.3 |
| 20260507140510 | 33 | 0 | 0.9 | 2.6 | 0.00 | 0.07 | 0.01 | 83 | 1025.4 |
| 20260507140000 | 32 | 0 | 0.9 | 2.6 | 0.00 | 0.07 | 0.01 | 84 | 1025.5 |
| 20260507135458 | 31 | 0 | 0.0 | 1.7 | 0.00 | 0.07 | 0.01 | 86 | 1025.5 |
| 20260507134952 | 31 | 0 | 0.0 | 0.9 | 0.00 | 0.07 | 0.01 | 87 | 1025.5 |
| 20260507134442 | 30 | 0 | 0.0 | 0.0 | 0.00 | 0.08 | 0.00 | 87 | 1025.5 |
| 20260507133925 | 30 | 0 | 0.0 | 0.0 | 0.00 | 0.09 | 0.00 | 87 | 1025.3 |
| 20260507133406 | 29 | 0 | 0.0 | 0.0 | 0.00 | 0.09 | 0.00 | 88 | 1025.3 |
| 20260507132910 | 29 | 0 | 0.0 | 0.0 | 0.00 | 0.09 | 0.00 | 87 | 1025.0 |
| 20260507131747 | 28 | 0 | 0.0 | 0.9 | 0.00 | 0.11 | 0.00 | 89 | 1025.2 |
| 20260507131255 | 27 | 0 | 0.0 | 0.0 | 0.00 | 0.11 | 0.00 | 90 | 1025.2 |
| 20260507130748 | 26 | 0 | 0.0 | 1.7 | 0.00 | 0.11 | 0.00 | 90 | 1025.2 |
| 20260507130247 | 26 | 0 | 0.9 | 1.7 | 0.00 | 0.13 | 0.00 | 89 | 1025.0 |
| 20260507125140 | 26 | 0 | 0.0 | 1.7 | 0.00 | 0.13 | 0.00 | 89 | 1024.8 |
| 20260507124634 | 26 | 0 | 0.0 | 0.9 | 0.00 | 0.14 | 0.00 | 90 | 1024.8 |
| 20260507124140 | 25 | 0 | 0.0 | 0.0 | 0.00 | 0.14 | 0.00 | 90 | 1024.7 |
| 20260507123629 | 25 | 0 | 0.9 | 3.5 | 0.00 | 0.14 | 0.00 | 91 | 1024.7 |
| 20260507123130 | 24 | 0 | 1.7 | 3.5 | 0.00 | 0.14 | 0.00 | 91 | 1024.7 |
| 20260507122633 | 24 | 0 | 0.9 | 2.6 | 0.00 | 0.14 | 0.00 | 91 | 1024.8 |
| 20260507122137 | 24 | 0 | 0.9 | 1.7 | 0.00 | 0.14 | 0.00 | 90 | 1024.8 |
| 20260507121625 | 23 | 0 | 0.9 | 1.7 | 0.00 | 0.14 | 0.00 | 90 | 1024.7 |
| 20260507120515 | 24 | 0 | 0.0 | 1.7 | 0.00 | 0.14 | 0.00 | 90 | 1024.8 |
| 20260507115957 | 24 | 0 | 0.0 | 0.9 | 0.00 | 0.14 | 0.00 | 90 | 1024.7 |